Theta_e
283 282 282 283 283 283 283 282 282 283 282 282 282 281 281 282 282 282 282 283 284 286 288 287 287 288 289 291 292 293 295 299 297 300 295 295 295 294 295 296 295 294 296
282 282 282 283 283 283 282 282 283 282 282 281 281 280 281 281 281 280 281 282 283 284 286 286 285 287 287 289 290 291 292 295 298 296 298 292 294 295 295 294 293 294 293
281 281 282 282 282 282 282 282 282 281 281 280 280 280 280 280 280 280 281 282 283 283 284 285 285 286 286 287 288 289 291 293 294 297 297 292 292 293 291 292 291 291 291
281 281 281 282 282 282 282 282 281 281 280 279 280 279 279 279 279 280 281 281 282 283 284 285 285 285 286 287 287 288 289 289 290 292 296 290 291 291 291 288 286 288 288
280 280 281 282 282 281 281 281 280 279 279 279 279 278 278 278 279 280 281 281 281 282 283 284 286 286 286 287 287 287 288 288 288 289 292 289 289 287 288 288 287 285 284
279 280 281 281 281 280 279 279 278 278 278 278 277 277 276 277 280 281 282 281 282 281 281 283 285 285 286 288 288 289 290 288 287 288 289 291 290 289 289 287 286 282 281
280 280 280 279 278 278 277 277 276 276 276 275 275 275 275 276 279 281 281 281 281 281 281 282 282 284 285 286 287 288 289 290 291 290 289 291 291 290 289 286 286 285 285
279 279 278 277 276 275 275 275 274 274 274 273 273 273 274 275 278 280 280 280 280 281 281 281 281 283 284 285 285 286 286 287 289 291 292 292 294 293 290 288 287 285 280
274 274 275 274 273 273 272 272 272 272 272 272 273 273 273 273 277 278 280 279 280 280 280 281 281 282 283 285 285 285 284 285 289 292 293 294 295 294 291 288 283 281 277
272 272 271 271 271 270 270 270 271 271 271 272 272 272 272 272 275 278 279 279 278 279 280 281 281 281 283 284 284 284 283 284 285 288 289 291 293 292 291 288 285 284 281
269 269 269 269 268 268 269 269 269 269 270 269 269 270 271 272 274 277 279 278 278 278 278 279 280 282 282 283 285 284 285 286 286 286 287 287 288 288 288 287 287 287 283
267 266 266 266 267 268 267 268 268 268 267 267 267 268 271 273 274 276 278 279 279 277 277 278 279 281 282 283 284 286 288 288 286 285 285 284 284 284 283 281 281 280 282
264 263 264 265 266 267 267 266 266 266 266 266 267 268 269 272 273 275 276 278 278 277 277 278 280 281 282 283 284 287 285 285 284 283 282 281 279 276 274 273 273 273 273
262 262 264 265 265 265 265 266 265 264 265 266 266 268 269 270 271 273 274 275 276 276 277 278 279 280 281 283 285 285 285 285 284 283 280 275 275 275 275 275 274 274 272
262 263 263 264 263 263 264 264 265 266 267 268 268 269 269 268 270 275 275 274 275 276 276 275 275 277 280 284 284 284 284 283 282 277 275 274 274 274 274 276 275 274 272
261 262 261 261 261 262 262 262 266 268 270 271 272 271 271 272 274 274 275 276 276 276 271 269 271 273 275 278 283 283 283 282 279 277 276 275 274 274 273 274 275 274 272
257 259 259 259 259 260 260 260 258 262 266 268 268 270 270 271 272 272 274 274 272 270 264 264 266 269 271 272 278 283 282 282 279 277 276 275 274 273 273 273 273 273 272
251 254 256 257 258 258 258 258 258 257 257 259 263 266 268 268 269 271 271 268 260 262 261 262 263 265 267 269 270 281 282 280 279 278 276 275 275 274 273 273 273 272 271
254 255 255 255 256 256 256 256 256 257 256 257 258 261 262 264 267 268 266 259 258 258 259 260 261 262 265 267 269 273 282 281 280 278 276 275 275 274 274 274 273 272 271
251 252 254 253 254 253 254 254 255 254 255 255 255 256 257 260 259 257 257 257 257 258 259 259 260 261 263 265 267 268 281 281 279 278 277 276 275 276 275 275 273 271 271
249 250 251 250 249 251 252 252 252 252 252 252 253 256 264 260 255 255 255 256 257 257 258 258 259 260 262 264 266 268 272 281 280 279 278 277 276 276 276 276 274 273 270
247 246 246 245 249 249 249 250 250 249 250 250 252 253 260 254 254 254 255 256 257 257 258 258 258 260 261 263 265 267 268 279 280 279 278 277 277 277 276 275 274 272 269
245 244 245 244 245 247 247 247 247 247 248 249 250 251 252 253 254 254 255 256 257 257 258 259 259 260 263 265 266 267 268 272 282 281 279 278 277 277 276 274 273 271 270
242 242 242 243 243 244 245 246 246 246 247 247 249 250 252 253 254 254 255 257 258 258 259 260 261 262 263 266 267 269 270 271 283 282 281 279 277 277 275 274 273 272 270
241 242 242 242 242 244 244 246 248 246 246 247 248 250 251 253 254 255 256 257 258 260 261 261 263 265 267 268 268 269 270 271 279 282 281 280 277 276 274 273 272 271 270
241 242 242 242 243 244 244 245 247 248 247 247 248 249 251 252 254 255 257 258 259 260 261 264 267 268 270 270 270 272 273 276 282 281 280 278 276 275 274 273 271 270 269
Wind_Speed
6 6 7 7 7 7 7 8 9 11 12 12 13 13 13 13 13 12 13 14 14 14 11 12 16 16 11 11 10 11 12 11 12 11 3 4 8 10 9 11 9 11 10
6 6 8 8 7 8 8 9 9 11 11 12 13 14 14 14 14 14 14 14 14 14 13 14 16 12 17 15 11 13 13 14 12 16 7 5 8 12 10 13 10 9 9
5 6 7 8 8 9 9 9 10 11 12 12 13 14 14 14 15 14 14 14 14 15 14 15 16 17 15 13 15 13 11 11 13 13 12 4 5 7 6 7 9 9 8
6 6 8 8 8 8 9 9 10 10 12 13 13 13 14 14 15 15 14 15 16 16 15 15 16 17 16 15 14 16 14 12 13 15 11 6 4 4 8 10 7 6 8
6 7 8 8 7 7 9 10 10 12 12 13 14 14 14 13 11 13 14 16 17 18 17 16 16 16 20 20 13 15 15 13 12 12 13 5 6 4 11 8 9 7 3
5 7 6 6 6 8 10 11 12 13 13 13 14 14 15 11 21 23 20 14 16 18 18 16 16 19 18 22 24 26 24 16 17 14 13 12 13 9 9 9 9 9 7
5 6 5 6 8 10 11 12 13 13 14 14 14 15 15 15 24 25 24 14 15 16 17 17 15 14 18 16 21 26 24 26 28 20 18 17 13 12 11 12 12 14 10
4 5 5 7 9 11 11 12 13 12 13 13 13 14 14 14 26 26 24 16 14 16 15 16 17 17 20 19 19 19 18 18 18 15 17 16 16 13 16 17 15 10 5
3 3 5 8 10 10 11 12 13 12 12 13 13 14 15 15 26 25 21 13 13 16 16 16 17 19 28 30 20 19 20 18 17 26 28 28 25 23 19 10 10 11 4
3 4 6 6 8 10 11 12 11 12 13 11 14 14 16 15 23 23 20 10 12 12 14 15 24 22 30 31 20 18 17 18 15 14 13 17 22 18 27 19 14 15 8
3 4 5 6 8 9 11 10 12 12 12 13 13 14 15 14 14 22 22 12 11 11 13 14 14 29 33 34 35 20 18 17 16 15 11 8 8 10 13 14 13 13 12
3 4 5 6 6 7 10 10 11 12 12 12 12 12 10 11 15 19 24 23 22 13 14 13 16 32 37 37 30 32 26 22 10 9 7 6 6 6 4 4 6 5 2
2 5 6 7 7 7 9 11 10 10 10 10 10 10 12 11 10 21 23 25 25 16 13 23 35 35 36 28 30 27 21 9 7 7 6 3 2 5 7 8 9 13 12
4 5 5 6 7 7 7 8 8 8 9 10 10 11 11 12 11 10 11 13 18 17 20 17 24 29 29 24 17 13 8 7 7 5 3 4 5 4 6 4 7 8 8
4 5 6 6 8 8 7 8 9 9 12 12 10 11 12 12 13 24 21 15 14 18 23 14 14 13 15 12 10 9 5 2 3 3 4 5 5 5 4 3 7 6 6
4 4 5 6 6 7 8 8 17 18 22 23 22 17 11 22 27 29 30 29 29 29 13 11 12 12 12 14 11 9 3 4 4 4 5 5 6 6 6 4 4 4 9
3 5 5 6 6 7 7 8 10 17 19 18 19 22 23 23 27 28 27 29 25 21 7 9 10 11 12 12 15 8 3 3 5 5 6 6 6 6 8 6 5 7 7
3 6 4 5 6 6 7 8 8 8 13 13 13 19 20 24 26 24 27 21 11 9 7 9 11 11 12 12 13 11 3 3 4 5 5 6 7 8 8 7 6 7 8
3 3 3 4 5 6 7 7 7 8 9 11 13 13 11 24 24 23 21 7 9 10 9 10 10 11 11 12 12 15 4 4 4 5 6 7 7 7 7 7 7 8 9
3 5 4 4 5 5 5 6 6 7 8 8 9 11 12 12 11 12 9 9 8 9 10 11 11 11 11 12 12 11 9 3 4 5 6 6 7 7 8 8 8 9 7
2 3 5 4 4 4 5 5 6 6 8 8 9 10 24 12 10 9 10 10 10 10 11 11 11 11 11 11 11 11 13 4 5 5 6 7 7 8 8 8 8 8 8
2 3 3 3 4 4 5 5 5 6 7 8 9 10 22 7 8 9 10 10 10 10 10 10 11 11 11 11 11 11 10 11 4 5 6 6 6 7 7 8 8 8 8
2 3 4 3 3 5 4 4 4 5 7 8 8 9 9 8 8 9 10 11 11 11 10 10 11 12 11 10 10 10 11 12 5 7 8 8 7 8 8 9 9 8 9
2 3 3 4 3 4 4 5 4 6 7 7 8 8 9 9 10 11 11 11 11 12 11 11 11 16 14 13 11 10 10 11 7 9 11 9 9 10 8 8 8 10 9
2 3 3 3 4 4 5 5 6 5 6 6 7 8 9 10 10 11 11 11 12 12 14 14 12 15 17 20 19 20 17 18 14 9 7 9 10 13 10 9 10 9 11
3 3 3 3 3 4 4 4 6 6 6 7 7 8 9 10 10 11 11 12 12 14 17 13 16 22 23 17 18 19 19 18 12 13 9 8 9 9 9 11 14 9 11
Wind_Direction
294 296 294 290 290 290 290 293 298 306 311 310 312 310 309 309 309 307 303 301 302 299 295 299 304 305 300 301 300 299 296 282 267 270 228 209 187 199 197 187 193 190 203
278 278 281 284 285 287 291 296 300 302 305 305 306 303 304 305 305 304 302 299 299 295 302 301 301 304 302 299 296 293 294 298 277 268 251 211 211 199 197 184 186 188 185
275 282 289 284 283 282 283 291 299 301 303 304 303 300 302 302 302 299 296 297 298 299 295 294 300 301 297 296 295 293 285 289 294 265 260 207 205 193 165 181 181 175 175
286 287 287 288 291 289 293 295 297 301 300 301 298 298 297 299 298 296 297 303 300 297 295 288 292 294 293 293 289 292 287 285 284 289 256 205 193 194 188 172 175 180 170
271 283 284 291 294 293 299 302 302 302 300 298 299 298 297 296 294 301 302 301 302 298 296 291 286 290 286 279 281 281 280 277 277 273 276 213 199 171 195 184 185 160 146
273 283 289 296 303 305 305 308 306 304 304 302 299 296 296 293 298 300 302 301 299 299 297 293 292 295 290 293 287 280 272 272 272 268 268 245 220 208 197 191 172 165 181
276 289 301 310 309 310 310 309 307 305 305 300 298 296 293 294 297 303 306 299 296 296 298 300 298 296 295 291 293 287 280 274 259 263 258 258 233 206 192 189 193 196 182
279 303 313 314 313 314 312 308 306 304 301 298 297 294 291 291 299 306 306 302 298 297 296 296 294 294 293 298 295 290 280 276 273 267 252 252 244 210 196 192 188 172 89
289 301 317 320 312 312 308 307 305 302 300 297 295 296 295 294 300 306 308 303 293 298 299 296 295 295 294 295 296 293 288 281 274 263 259 255 252 210 191 175 174 170 154
303 310 310 305 305 302 300 301 300 297 295 298 297 294 291 291 297 303 313 299 301 298 299 296 300 296 298 298 296 295 285 284 281 269 256 256 246 207 187 186 175 191 168
307 296 304 298 296 293 293 297 298 300 299 296 294 295 294 289 294 308 311 310 301 302 302 303 301 303 303 299 299 293 281 279 274 268 252 237 217 196 188 195 189 197 182
313 306 299 292 288 292 292 297 300 301 301 301 302 300 296 302 300 312 314 315 310 307 300 299 300 301 301 299 298 292 285 280 270 245 224 205 190 175 154 140 127 109 155
282 290 292 294 291 296 307 307 307 304 304 303 303 306 307 310 311 315 314 314 314 310 301 297 301 301 298 297 290 288 288 274 237 218 207 172 109 113 114 95 84 87 68
297 293 297 301 307 306 306 303 304 303 303 304 302 301 309 308 314 316 311 314 313 310 302 299 300 300 295 286 288 287 277 250 219 216 167 113 119 128 132 136 125 119 104
305 307 312 316 314 312 307 305 301 299 297 301 306 305 308 310 311 314 319 318 312 311 317 309 306 310 313 299 296 286 261 200 176 118 140 136 135 135 131 134 136 134 121
308 312 311 309 308 307 308 307 304 310 311 310 309 311 310 310 312 319 317 316 324 325 316 313 312 311 310 316 304 293 240 194 148 141 142 151 146 145 138 126 129 123 134
291 308 308 306 310 313 314 312 315 317 318 316 318 319 317 315 323 319 318 327 331 328 317 313 309 310 313 312 311 283 246 195 150 153 153 151 141 137 142 140 127 121 124
264 279 283 298 300 301 304 305 305 309 314 317 320 319 322 326 324 321 332 335 326 330 315 313 310 311 311 312 313 298 226 172 168 160 159 159 156 153 152 152 142 139 142
279 283 287 291 288 293 296 295 296 301 302 303 314 320 324 323 321 332 334 321 314 313 315 311 306 307 307 307 306 310 239 197 177 161 157 157 155 159 156 146 133 136 134
266 279 289 291 301 300 294 292 304 305 305 305 309 311 322 313 337 328 325 318 311 307 310 309 307 304 303 305 308 310 286 193 174 165 161 158 158 158 153 145 143 149 147
286 293 291 296 288 286 291 298 299 302 301 303 299 305 317 337 317 310 310 311 308 307 306 304 302 300 298 300 302 304 311 232 188 169 164 160 160 162 153 149 144 143 134
273 285 290 284 295 300 292 290 297 296 296 300 303 304 320 312 300 302 303 301 299 296 292 292 292 292 293 294 298 301 299 287 191 171 161 158 161 149 147 150 152 146 136
286 304 306 295 292 296 295 288 291 291 297 297 301 305 311 308 307 304 302 301 301 299 297 292 288 290 289 286 286 282 281 292 215 174 166 163 161 157 155 155 153 147 151
296 290 285 293 306 304 299 299 295 293 296 299 303 305 305 306 306 303 302 303 303 301 299 293 291 289 290 290 289 281 281 284 228 185 172 165 163 153 149 148 156 155 145
290 289 289 287 300 301 307 308 307 298 296 297 305 307 305 304 306 307 307 307 306 306 307 304 292 292 292 295 291 287 278 272 261 173 169 163 161 155 152 150 151 147 146
291 284 278 290 297 293 296 303 306 305 301 307 303 303 302 304 306 308 311 311 313 312 308 307 308 307 305 300 293 291 283 273 215 167 161 153 152 151 149 148 149 146 146